Regional Weather Roundup
Issued by NWS Green Bay, WI

Home | Current Version | Previous Version | Graphics & Text | Print | Product List | Glossary Off
Versions: 1 2 3 4 5 6 7 8 9 10 11 12 13 14 15 16 17 18 19 20 21 22 23 24 25 26 27 28 29 30 31 32 33 34 35 36 37 38 39 40 41 42 43 44 45 46 47 48 49 50

000
ASUS43 KGRB 240500
RWRGRB

NORTH-CENTRAL AND NORTHEAST WISCONSIN REGIONAL WEATHER ROUNDUP
NATIONAL WEATHER SERVICE GREEN BAY WI
1200 AM CDT FRI MAR 24 2017

WIZ005-009-010>012-018-019-240600-
NORTH CENTRAL WISCONSIN

CITY           SKY/WX    TMP DP  RH WIND       PRES   REMARKS
IRONWOOD       MIX PCPN  34  31  88 CALM      29.89S
MANITOWISH WTR NOT AVBL
ARBOR VITAE    NOT AVBL
EAGLE RIVER    NOT AVBL
LAND O LAKES   NOT AVBL
RHINELANDER    CLOUDY    34  30  85 E5        29.88F
PHILLIPS       NOT AVBL
ANTIGO         NOT AVBL
TOMAHAWK       NOT AVBL
MERRILL        NOT AVBL
$$

WIZ013-073-240600-
NORTHEAST WISCONSIN

CITY           SKY/WX    TMP DP  RH WIND       PRES   REMARKS
IRON MOUNTAIN  CLOUDY    32  27  81 CALM      29.93F
MARINETTE        N/A    N/A N/A N/A MISG        N/A
$$

WIZ017-030-035>037-045-240600-
CENTRAL WISCONSIN

CITY           SKY/WX    TMP DP  RH WIND       PRES   REMARKS
MEDFORD        NOT AVBL
WAUSAU         CLOUDY    37  31  78 SE5       29.88S
MOSINEE        NOT AVBL
MARSHFIELD     CLOUDY    37  32  82 S6        29.87R
WISC RAPIDS    CLOUDY    38  34  85 S5        29.90F
STEVENS POINT  NOT AVBL
WAUPACA        NOT AVBL
SHAWANO        NOT AVBL
CLINTONVILLE   NOT AVBL
WAUTOMA        CLOUDY    41  34  76 S6        29.91
$$

WIZ038-039-048-051-240600-
FOX VALLEY

CITY           SKY/WX    TMP DP  RH WIND       PRES   REMARKS
NWS GREEN BAY  CLOUDY    37  33  85 S6        29.94F
APPLETON       NOT AVBL
OSHKOSH        CLOUDY    38  33  82 CALM      29.94R
FOND DU LAC    CLOUDY    41  33  73 NW10      29.96R
$$

WIZ022-050-052-240600-
EAST CENTRAL WISCONSIN

CITY           SKY/WX    TMP DP  RH WIND       PRES   REMARKS
EPHRAIM        NOT AVBL
WASHINGTON ISL NOT AVBL
STURGEON BAY   CLOUDY    37  33  85 S10       29.95R
MANITOWOC      NOT AVBL
SHEBOYGAN      CLOUDY    38  34  85 S8        29.89F
$$

LMZ563-521-522-541>543-240600-
LAKESHORE

STATION/POSITION TIME  TEMP    WIND        PRES    VSBY  WAVE
                       AIR SEA DIR/SP/G                  HT/PER
                 (UTC) (F)     (DEG/KT/KT) (MB)    (MI)  (FT/S)
SHEBOYGAN LKSHOR 0400   38     170/ 20/ 22 1014.4S
KEWAUNEE LKSHORE 0430   37     190/ 13/ 15 1013.9F
NORTHPORT PIER   0440   37     150/  6/ 11 1015.2F
SISTER BAY LKSHO 0406   36     180/ 13/ 16   N/A
CHAMBERS ISLAND  0440   36     180/  4/  8 1015.2R
MENOMINEE LKSHOR 0430   36     180/  7/ 10 1014.4R
$$




USA.gov is the U.S. government's official web portal to all federal, state and local government web resources and services.